Location: DARK SKY Beskydy - Park tmavé oblohy, www.darkskybeskydy.cz
(49.4926°N, 18.5016°E)
Time: 03:51:03
(UTC+01:00)

Envisat - Pass Details

Date: 02 December 2022
Orbit: 763 x 765 km, 98.2° (Epoch: 05 February)

Event Time Altitude Azimuth Distance (km) Brightness Sun altitude
Rises 02:37:34 0° 29° (NNE) 3,244 6.7 -44.9°
Reaches altitude 10° 02:40:54 10° 52° (NE) 2,311 6.0 -44.4°
Enters shadow 02:41:00 10° 53° (NE) 2,291 6.0 -44.4°
